This is the latest recevied weather packets stored in our database for station/object AD5L. If no packets are shown the sender has not sent any weather packets the latest 10 day(s).
| Time | Temp. | Humidity | Pressure | Rain* | Wind** | Luminosity | Snow |
|---|---|---|---|---|---|---|---|
| 1777611819 | 16.11° C | 99% | 1014.7 hPa | 0 mm | - | - | - |
| 1777611210 | 16.11° C | 99% | 1014.8 hPa | 0.25 mm | - | - | - |
| 1777610621 | 16.11° C | 99% | 1014.7 hPa | 0.25 mm | - | - | - |
| 1777610011 | 16.67° C | 100% | 1014.6 hPa | 1.02 mm | - | - | - |
| 1777609403 | 16.67° C | 100% | 1015.1 hPa | 1.78 mm | - | - | - |
| 1777608814 | 16.67° C | 99% | 1014.8 hPa | 2.29 mm | - | - | - |
| 1777608205 | 16.67° C | 99% | 1013 hPa | 2.79 mm | - | - | - |
| 1777607616 | 16.67° C | 99% | 1012.9 hPa | 3.81 mm | - | - | - |
| 1777607028 | 16.67° C | 99% | 1013.8 hPa | 3.81 mm | - | - | - |
| 1777606417 | 16.67° C | 99% | 1013.7 hPa | 3.3 mm | - | - | - |
| 1777605829 | 16.67° C | 99% | 1014.1 hPa | 2.54 mm | - | - | - |
| 1777605216 | 17.22° C | 99% | 1014.4 hPa | 2.03 mm | - | - | - |
| 1777604622 | 17.22° C | 98% | 1015.2 hPa | 1.52 mm | - | - | - |
| 1777604002 | 17.22° C | 98% | 1016.2 hPa | 0.25 mm | - | - | - |
| 1777603413 | 17.22° C | 98% | 1014.7 hPa | 0 mm | - | - | - |
| 1777602803 | 17.22° C | 98% | 1013.4 hPa | 0 mm | - | - | - |
| 1777602215 | 17.22° C | 98% | 1013.5 hPa | 0 mm | - | - | - |
| 1777601607 | 17.22° C | 98% | 1013.3 hPa | 0 mm | - | - | - |
| 1777601017 | 17.78° C | 99% | 1013.1 hPa | 0 mm | - | - | - |
| 1777600408 | 17.78° C | 99% | 1012.6 hPa | 0 mm | - | - | - |
| 1777599820 | 17.78° C | 99% | 1012.8 hPa | 0 mm | - | - | - |
| 1777599210 | 17.78° C | 99% | 1012.5 hPa | 0 mm | - | - | - |
| 1777598621 | 17.78° C | 98% | 1012.1 hPa | 0 mm | - | - | - |
| 1777598011 | 17.78° C | 98% | 1012 hPa | 0 mm | - | - | - |
| 1777597402 | 17.78° C | 98% | 1012.2 hPa | 0 mm | - | - | - |
* Rain latest hour (hover to see other rain measurements)
** Current wind speed in m/s (hover to see current wind gust speed)